Regional Weather Roundup
Issued by NWS Wakefield, VA

Home | Current Version | Previous Version | Graphics & Text | Print | Product List | Glossary Off
Versions: 1 2 3 4 5 6 7 8 9 10 11 12 13 14 15 16 17 18 19 20 21 22 23 24 25 26 27

000
ASUS41 KAKQ 221315
RWRAKQ

REGIONAL WEATHER ROUNDUP
NATIONAL WEATHER SERVICE WAKEFIELD VA
900 AM EDT SAT JUL 22 2017

Note: "fair" indicates few or no clouds below 12,000 feet with no
significant weather and/or obstructions to visibility. * = Denotes
station may not report precipitation (e.g., rain,snow,etc.),
thunder or fog.

VAZ042-051-052>054-056-221400-
NORTHERN VIRGINIA

CITY           SKY/WX    TMP DP  RH WIND       PRES   REMARKS
WASH NATIONAL  CLOUDY    84  74  71 N6        29.92R
DULLES         PTSUNNY   81  70  69 NW6       29.93R
FORT BELVOIR   CLOUDY    84  71  65 NW6       29.92R
QUANTICO       PTSUNNY   85  73  67 NW6       29.93R
FREDERICKSBRG* SUNNY     82  73  74 CALM      29.93R
STAFFORD*      MOSUNNY   81  75  80 W5        29.97R
WARRENTON      MOSUNNY   84  69  59 W3        29.94R
CULPEPER*      CLOUDY    81  72  72 CALM      29.95R
MANASSAS*      CLOUDY    83  72  69 N8        29.94R
LEESBURG*      CLOUDY    82  75  78 NW7       29.94F
WINCHESTER     CLOUDY    75  68  78 CALM      29.96S
FRONT ROYAL*   CLOUDY    75  70  83 SW5       29.97R
LURAY*         MOSUNNY   73  72  94 CALM      29.99R
$$

VAZ048-049-060>072-079>083-221400-
CENTRAL AND SOUTH CENTRAL VIRGINIA

CITY           SKY/WX    TMP DP  RH WIND       PRES   REMARKS
RICHMOND       CLOUDY    86  71  60 NW3       29.94R
CHESTERFIELD*  FAIR      83  72  69 CALM      29.96R
PETERSBURG*    SUNNY     82  71  68 CALM      29.96R
HANOVER        SUNNY     83  70  64 CALM      29.95R
TAPPAHANNOCK*  SUNNY     83  65  53 W3        29.94S
QUINTON*       FAIR      81  74  79 CALM      29.93S
CHARLOTTSVILLE PTSUNNY   81  71  71 CALM      29.96R
GORDONSVILLE*  MOSUNNY   82  72  72 CALM      29.95R
ORANGE*        MOSUNNY   81  70  69 CALM      29.95R
LOUISA*        CLOUDY    82  70  65 CALM      29.95R
BUMPASS*       FAIR      81  73  76 CALM      29.95R
FARMVILLE*     SUNNY     82  68  62 CALM      29.96R
CREWE*         FAIR      81  70  69 SW3       29.96R
FORT PICKETT*  FAIR     N/A N/A N/A W8        29.97R
CHASE CITY*    FAIR      79  78  99 CALM      29.98R
CLARKSVILLE*   FAIR      81  75  83 W3        29.97S
SOUTH HILL*    SUNNY     82  76  83 SW8       30.02S
LAWRENCEVILLE* FAIR      80  74  83 SW5       29.96S
EMPORIA*       SUNNY     81  73  78 SW6       29.97S
$$

VAZ088>098-221400-
SOUTHEAST VIRGINIA

CITY           SKY/WX    TMP DP  RH WIND       PRES   REMARKS
NORFOLK        SUNNY     83  75  77 SW9       29.93R
VIRGINIA BEACH PTSUNNY   82  74  76 W9        29.92S
NORFOLK NAVAL  MOSUNNY   84  74  71 W10       29.94S
WEST POINT*    SUNNY     83  71  66 W5        29.94S
SALUDA*        FAIR      82  75  78 W3        29.92R
NEWPORT NEWS   SUNNY     82  74  76 W7        29.93R
LANGLEY AFB    SUNNY     82  75  78 W9        29.93R
FORT EUSTIS    SUNNY     85  75  71 W8        29.92R
WILLIAMSBURG*  SUNNY     82  73  74 CALM      29.95S
HR EXEC AP*    FAIR      82  73  74 SW7       29.92S
FRANKLIN*      MOSUNNY   81  73  78 SW5       29.95S
US460-WAKEFLD  SUNNY     82  75  79 W6        29.94S
$$

VAZ020-022-025-037-045-221400-
WEST CENTRAL AND SOUTHWEST VIRGINIA

CITY           SKY/WX    TMP DP  RH WIND       PRES   REMARKS
STAUNTON*      CLOUDY    71  69  94 CALM      30.04R
WAYNESBORO*    CLOUDY    73  70  91 CALM      30.03R
HOT SPRINGS VA NOT AVBL
LYNCHBURG      CLOUDY    78  74  87 S5        30.00R
DANVILLE       SUNNY     80  77  90 W5        29.99R
SOUTH BOSTON*  FAIR      81  76  85 SW7       29.98R
MARTINSVILLE   SUNNY     79  71  78 CALM      30.04R
ROANOKE        CLOUDY    80  71  74 VRB5      30.04R
BLACKSBURG     SUNNY     76  70  82 CALM      30.11R
DUBLIN*        SUNNY     80  66  63 SW5       30.09S
MARION*        SUNNY     76  69  77 W6        30.14R
HILLSVILLE*    SUNNY     76  66  71 CALM      30.12R
RICHLANDS*     FAIR      76  69  78 CALM      30.13R
WISE*          SUNNY     79  68  69 W5        30.13R
ABINGDON*      SUNNY     78  71  78 CALM      30.10R
$$

MDZ021>025-VAZ099-100-221400-
SOUTHERN MARYLAND AND THE DELMARVA PENINSULA

CITY           SKY/WX    TMP DP  RH WIND       PRES   REMARKS
PATUXENT RIVER PTSUNNY   83  76  79 NW9       29.90R
BAY BRIDGE APT MOSUNNY   84  75  74 CALM      29.90R
LEONARDTOWN    MOSUNNY   81  73  78 W5        29.92S
DOVER          MOSUNNY   81  81 100 S3        29.87S
GEORGETOWN     PTSUNNY   81  75  82 S6        29.90R
EASTON         MOSUNNY   82  75  78 CALM      29.93S
CAMBRIDGE      NOT AVBL
SALISBURY      MOSUNNY   84  79  84 VRB3      29.89  HX  96
OCEAN CITY     SUNNY     79  75  87 VRB6      29.90R
WALLOPS ISLAND CLOUDY    84  76  76 W10       29.91R
ACCOMACK*      SUNNY     85  75  72 W9        29.91R
$$

NCZ012>017-030>032-221400-
NORTH CENTRAL AND EASTERN NORTH CAROLINA

CITY           SKY/WX    TMP DP  RH WIND       PRES   REMARKS
ROANOKE RAPIDS FAIR      81  73  78 W7        29.97R
RALEIGH        MOSUNNY   83  74  74 SW9       29.99S
ELIZABETH CITY NOT AVBL
AHOSKIE*         N/A     80  76  86 CALM      29.96S
EDENTON*       SUNNY     83  76  79 SW9       29.97R
CURRITUCK*     MOSUNNY   83  76  79 SW13      29.95S
KILL DEVIL HLS SUNNY     82  74  77 SW5       29.95S
MANTEO         SUNNY     82  75  78 SW13      29.97S
CAPE HATTERAS  SUNNY     80  74  81 SW10G18   30.00R
TARBORO*       NOT AVBL
GOLDSBORO      SUNNY     82  80  93 SW12      29.98R
WASHINGTON     SUNNY     82  75  79 SW8       29.99R
GREENVILLE     SUNNY     81  75  83 SW9       30.00R
NEW BERN       SUNNY     83  76  79 SW9       30.02R
WILMINGTON     SUNNY     83  76  79 SW9       30.03R
$$

VAZ048-221400-
ELSEWHERE

CITY           SKY/WX    TMP DP  RH WIND       PRES   REMARKS
HARRISBURG PA  CLOUDY    81  69  67 CALM      29.91R
BALTIMORE      CLOUDY    84  73  69 N5        29.90R
ANNAPOLIS      SUNNY     81  77  88 N6        29.89S
ANDREWS AFB    SUNNY     84  71  65 N6        29.91R
PHILADELPHIA   PTSUNNY   85  67  54 E9        29.90R
HENDERSON NC   SUNNY     79  71  77 SW8       29.98S
GREENSBORO     MOSUNNY   82  76  81 SW7       30.01R
ROCKY MOUNT    SUNNY     82  76  81 SW10      29.98R
$$

VAZ100-221400-
MARINE

STATION/POSITION TIME  TEMP    WIND        PRES    WAVE   SWELL
                       AIR SEA DIR/SP/G            HT/PER HT/PER
                 (UTC) (F)     (DEG/KT/KT) (MB)    (FT/S) (FT/S)
BRANDYWINE LGT   1248   73     170/  6/  7 1012.6R
CAPE MAY NJ      1248   77 74  190/  6/  8 1011.9R
LEWES DE         1248   80 75  180/  8/ 11 1012.0R
15NM E FENWICK I 1250   79 77  130/ 12/ 14 1012.3R   3/ 9   2/ 9
OCEAN-CITY-INLET 1248   76 71  180/  4/  5 1012.6R
WACHAPREAGUE VA  1248   85 83  240/  7/ 10 1012.8R
THOMAS POINT MD  1300   82 84  350/  7/  8   N/A
GOOSES REEF MD   1250   83     330/ 10/ 12 1013.1R
COVE POINT MD    1248   81     340/ 12/ 14 1012.9R
SOLOMONS ISLAND  1248   82 85  320/  6/ 10   N/A
BISHOPS HEAD MD  1248   81 85  290/  8/  9 1012.3R
PINEY POINT MD   1248          320/ 11/ 12   N/A
POTOMAC MD       1250   81     280/ 12/ 14 1011.5R
CAMBRIDGE MD     1248   83 88              1012.9R
LEWISETTA VA     1248   81 85  290/  7/  8 1012.7R
RAPPAHANNOCK LGT 1248          250/ 13/ 14 1013.8R
STINGRAY PT      1250   82     290/  8/ 10 1013.5R
YORK RVR RNG VA  1248   82     280/ 10/ 12 1013.6R
YORKTOWN VA      1248   81 83  250/  5/  9 1013.1R
JAMESTOWN VA     1250          290/  8/ 12   N/A
DOMINION TERM VA 1248   81     260/  8/ 11 1013.6R
KIPTOPEKE VA     1248      80  250/ 12/ 14   N/A
CHES BAY BRIDGE  1248   80 74  260/ 11/ 12 1013.2R
CAPE HENRY VA    1248   81     240/  8/ 10   N/A
WILLOUBY STN VA  1248   80     260/ 11/ 13 1013.4R
S CRANEY ISL VA  1248   82     250/  8/ 10 1013.4R
CAPE HENRY BUOY  1230      69                N/A     2/10   2/11
1ST LANDING BUOY 1250   81                 1013.2R
64NM E OF VA BCH 1250   80 80  230/ 16/ 19 1013.8R   4/ 6   2/ 9
DUCK PIER NC     1248   81 58  230/ 13/ 18 1013.9R
44100 DUCK FRF   1205      73                N/A     3/ 9
44056 DUCK FRF   1300      61                N/A     2/11
OREGON INLET NC  1248          220/ 15/ 18   N/A
HATTERAS NC      1248   79 78  230/ 12/ 16 1015.9R
DIAMOND SHLS NC  1250   82 84  240/ 19/ 21 1015.7R   4/ 9   2/ 9
CAPE LOOKOUT NC  1200   82     240/  9/ 13 1016.1R
$$




USA.gov is the U.S. government's official web portal to all federal, state and local government web resources and services.